Flag for Canada Weather past 2 weeks in The Pas, Manitoba, Canada

Now
54 °F

Clear.


Feels Like: 54 °F
Forecast: 53 / 78 °F
Wind: No wind

Location: The Pas

Current Time: Jul 23, 2014 at 3:10:04 AM

Latest Report: Jul 23, 2014 at 1:00 AM


Visibility: 15 mi

Pressure: 30.28 "Hg

Humidity: 88%

Dew point: 50 °F

Location of The PasLocation

Historic Weather in The Pas — Graph

°F

The Pas temperature yesterday

Maximum temperature yesterday: 73 °F (at 7:00 PM)
Minimum temperature yesterday: 54 °F (at 6:00 AM)
Average temperature yesterday: 62 °F

Past Weeks' High & Low Weather Summary

 TemperatureHumidityPressure
High82 °F (Jul 16, 4:00 PM)100% (Jul 15, 3:00 AM)30.33 "Hg (Jul 15, 3:00 AM)
Low52 °F (Jul 19, 6:00 AM)32% (Jul 17, 6:00 PM)29.40 "Hg (Jul 18, 2:00 PM)
Average65 °F69%29.84 "Hg
* Reported Midnight between Jul 7 and Jul 8 — Midnight between Jul 22 and Jul 23, The Pas, Weather by CustomWeather, © 2014

Note: Actual official high and low records may vary slightly from our data, if they occured in-between our weather recording intervals... More about our weather records

Advertising

The Pas weather history for previous 24 hours

 ConditionsComfort  
Time TempWeatherWind HumidityBarometerVisibility
12:00 AM
Jul 23
57 °FClear.No wind82%30.27 "Hg15 mi
11:00 PM
Jul 22
59 °FPassing clouds.No wind77%30.26 "Hg15 mi
10:00 PM61 °FSunny.No wind77%30.25 "Hg15 mi
9:00 PM68 °FSunny.No wind64%30.24 "Hg15 mi
8:00 PM73 °FPassing clouds.No wind36%30.24 "Hg15 mi
7:00 PM73 °FPassing clouds.No wind36%30.23 "Hg15 mi
6:00 PM72 °FPassing clouds.No wind38%30.23 "Hg15 mi
11:00 AM63 °FPassing clouds.3 mph68%30.22 "Hg15 mi
10:00 AM61 °FBroken clouds.3 mph77%30.20 "Hg15 mi
9:00 AM61 °FPassing clouds.3 mph77%30.19 "Hg15 mi
8:00 AM59 °FScattered clouds.5 mph82%30.17 "Hg15 mi
7:00 AM57 °FPassing clouds.3 mph88%30.14 "Hg15 mi
6:00 AM54 °FPassing clouds.3 mph94%30.12 "Hg15 mi
5:00 AM55 °FPassing clouds.2 mph88%30.11 "Hg15 mi
4:00 AM57 °FPassing clouds.2 mph88%30.08 "Hg15 mi
3:00 AM59 °FPassing clouds.3 mph88%30.06 "Hg15 mi
Weather by CustomWeather, © 2014

See weather overviewHow to use our weather pages